Location: Sears
(37.7625°N, 100.1060°W)
Time: 05:52:11
(UTC+00:00)

X-37B - Pass Details

Date: 30 July 2021
Orbit: 381 x 393 km, 45.0° (Epoch: 29 August)

Event Time Altitude Azimuth Distance (km) Brightness Sun altitude
Exits shadow 10:00:06 18° 149° (SSE) 1,024 2.6 -17.8°
Maximum altitude 10:00:26 18° 140° (SE) 1,015 2.6 -17.8°
Drops below altitude 10° 10:02:39 10° 95° (E) 1,393 4.0 -17.4°
Sets 10:05:08 0° 75° (ENE) 2,250 5.6 -17.1°
